| time (UTC) | temp F | wind direction | speed MPH | gust MPH | rain 1hr in | rain 24hr in | rain mn in | humidity % | barometer mb |
| 20260906191412 | 64 | 82 | 0.0 | 0.0 | 0.00 | 0.00 | 0.00 | 77 | 1022.8 |
| 20260906183911 | 65 | 144 | 0.0 | 0.0 | 0.00 | 0.00 | 0.00 | 75 | 1022.9 |
| 20260906183411 | 66 | 144 | 0.0 | 0.0 | 0.00 | 0.00 | 0.00 | 75 | 1022.9 |
| 20260906181913 | 67 | 158 | 0.0 | 1.0 | 0.00 | 0.00 | 0.00 | 71 | 1022.9 |
| 20260906180911 | 68 | 145 | 0.0 | 0.0 | 0.00 | 0.00 | 0.00 | 70 | 1022.8 |
| 20260906175914 | 69 | 145 | 0.0 | 0.0 | 0.00 | 0.00 | 0.00 | 68 | 1022.8 |
| 20260906174911 | 70 | 145 | 0.0 | 2.0 | 0.00 | 0.00 | 0.00 | 64 | 1023.0 |
| 20260906174411 | 71 | 143 | 0.0 | 2.0 | 0.00 | 0.00 | 0.00 | 63 | 1023.0 |
| 20260906172916 | 73 | 140 | 1.0 | 5.0 | 0.00 | 0.00 | 0.00 | 61 | 1022.9 |
| 20260906170411 | 77 | 158 | 0.0 | 5.0 | 0.00 | 0.00 | 0.00 | 49 | 1023.1 |
| 20260906164411 | 77 | 178 | 2.0 | 3.0 | 0.00 | 0.00 | 0.00 | 45 | 1023.2 |
| 20260906163911 | 77 | 170 | 2.0 | 5.0 | 0.00 | 0.00 | 0.00 | 43 | 1023.2 |
| 20260906163411 | 77 | 155 | 2.0 | 6.0 | 0.00 | 0.00 | 0.00 | 42 | 1023.2 |
| 20260906162914 | 77 | 172 | 2.0 | 5.0 | 0.00 | 0.00 | 0.00 | 47 | 1023.2 |
| 20260906161411 | 78 | 188 | 3.0 | 6.0 | 0.00 | 0.00 | 0.00 | 45 | 1023.3 |
| 20260906155913 | 78 | 197 | 2.0 | 7.0 | 0.00 | 0.00 | 0.00 | 41 | 1023.4 |
| 20260906155411 | 78 | 193 | 2.0 | 7.0 | 0.00 | 0.00 | 0.00 | 40 | 1023.5 |
| 20260906154911 | 78 | 150 | 2.0 | 5.0 | 0.00 | 0.00 | 0.00 | 38 | 1023.5 |
| 20260906154412 | 78 | 126 | 2.0 | 5.0 | 0.00 | 0.00 | 0.00 | 40 | 1023.5 |
| 20260906153411 | 78 | 181 | 3.0 | 6.0 | 0.00 | 0.00 | 0.00 | 42 | 1023.7 |
| 20260906152914 | 78 | 174 | 2.0 | 5.0 | 0.00 | 0.00 | 0.00 | 42 | 1023.7 |
| 20260906152412 | 78 | 161 | 2.0 | 6.0 | 0.00 | 0.00 | 0.00 | 42 | 1023.7 |
| 20260906151911 | 78 | 173 | 2.0 | 5.0 | 0.00 | 0.00 | 0.00 | 42 | 1023.7 |
| 20260906151411 | 78 | 168 | 2.0 | 5.0 | 0.00 | 0.00 | 0.00 | 40 | 1023.7 |
| 20260906150911 | 78 | 156 | 2.0 | 5.0 | 0.00 | 0.00 | 0.00 | 38 | 1023.8 |
| 20260906144412 | 77 | 199 | 3.0 | 5.0 | 0.00 | 0.00 | 0.00 | 46 | 1024.1 |
| 20260906143411 | 77 | 175 | 2.0 | 5.0 | 0.00 | 0.00 | 0.00 | 44 | 1024.0 |
| 20260906141911 | 77 | 187 | 3.0 | 8.0 | 0.00 | 0.00 | 0.00 | 43 | 1024.2 |
| 20260906141412 | 77 | 166 | 3.0 | 5.0 | 0.00 | 0.00 | 0.00 | 43 | 1024.2 |
| 20260906140411 | 76 | 176 | 5.0 | 7.0 | 0.00 | 0.00 | 0.00 | 44 | 1024.3 |
| 20260906134912 | 76 | 184 | 5.0 | 9.0 | 0.00 | 0.00 | 0.00 | 44 | 1024.2 |
| 20260906133916 | 76 | 218 | 3.0 | 7.0 | 0.00 | 0.00 | 0.00 | 45 | 1024.4 |
| 20260906133410 | 76 | 201 | 3.0 | 7.0 | 0.00 | 0.00 | 0.00 | 44 | 1024.4 |
| 20260906132411 | 76 | 229 | 3.0 | 7.0 | 0.00 | 0.00 | 0.00 | 43 | 1024.6 |
| 20260906131411 | 77 | 187 | 2.0 | 7.0 | 0.00 | 0.00 | 0.00 | 44 | 1024.6 |
| 20260906125917 | 76 | 185 | 2.0 | 5.0 | 0.00 | 0.00 | 0.00 | 46 | 1024.8 |
| 20260906125413 | 76 | 184 | 2.0 | 6.0 | 0.00 | 0.00 | 0.00 | 48 | 1024.9 |
| 20260906124414 | 76 | 155 | 2.0 | 5.0 | 0.00 | 0.00 | 0.00 | 48 | 1024.9 |
| 20260906123928 | 75 | 195 | 2.0 | 5.0 | 0.00 | 0.00 | 0.00 | 44 | 1025.1 |
| 20260906123412 | 75 | 212 | 2.0 | 6.0 | 0.00 | 0.00 | 0.00 | 44 | 1025.1 |
| 20260906122911 | 75 | 167 | 2.0 | 6.0 | 0.00 | 0.00 | 0.00 | 46 | 1025.1 |
| 20260906121911 | 74 | 288 | 3.0 | 3.0 | 0.00 | 0.00 | 0.00 | 51 | 1025.4 |
| 20260906121412 | 74 | 165 | 3.0 | 6.0 | 0.00 | 0.00 | 0.00 | 48 | 1025.4 |
| 20260906120411 | 74 | 172 | 2.0 | 7.0 | 0.00 | 0.00 | 0.00 | 50 | 1025.7 |
| 20260906115910 | 74 | 192 | 3.0 | 6.0 | 0.00 | 0.00 | 0.00 | 50 | 1025.7 |
| 20260906114411 | 73 | 188 | 3.0 | 7.0 | 0.00 | 0.00 | 0.00 | 52 | 1025.9 |
| 20260906113911 | 73 | 178 | 2.0 | 6.0 | 0.00 | 0.00 | 0.00 | 52 | 1026.0 |
| 20260906113411 | 72 | 238 | 2.0 | 6.0 | 0.00 | 0.00 | 0.00 | 55 | 1026.0 |
| 20260906112411 | 72 | 212 | 2.0 | 5.0 | 0.00 | 0.00 | 0.00 | 56 | 1026.0 |
| 20260906111911 | 72 | 302 | 2.0 | 6.0 | 0.00 | 0.00 | 0.00 | 54 | 1026.0 |
| 20260906110411 | 71 | 123 | 2.0 | 3.0 | 0.00 | 0.00 | 0.00 | 55 | 1026.2 |
| 20260906105912 | 71 | 240 | 2.0 | 5.0 | 0.00 | 0.00 | 0.00 | 55 | 1026.2 |
| 20260906104912 | 71 | 272 | 2.0 | 5.0 | 0.00 | 0.00 | 0.00 | 57 | 1026.5 |
| 20260906104411 | 70 | 168 | 2.0 | 5.0 | 0.00 | 0.00 | 0.00 | 56 | 1026.5 |
| 20260906103410 | 70 | 243 | 2.0 | 8.0 | 0.00 | 0.00 | 0.00 | 59 | 1026.6 |
| 20260906102913 | 69 | 242 | 2.0 | 6.0 | 0.00 | 0.00 | 0.00 | 60 | 1026.6 |
| 20260906101415 | 69 | 41 | 2.0 | 5.0 | 0.00 | 0.00 | 0.00 | 58 | 1026.7 |
| 20260906100912 | 69 | 51 | 3.0 | 5.0 | 0.00 | 0.00 | 0.00 | 57 | 1026.8 |
| 20260906100411 | 69 | 51 | 3.0 | 3.0 | 0.00 | 0.00 | 0.00 | 57 | 1026.8 |
| 20260906095411 | 69 | 211 | 2.0 | 8.0 | 0.00 | 0.00 | 0.00 | 61 | 1026.9 |
| 20260906094410 | 68 | 164 | 2.0 | 5.0 | 0.00 | 0.00 | 0.00 | 59 | 1026.9 |
| 20260906093411 | 68 | 166 | 2.0 | 6.0 | 0.00 | 0.00 | 0.00 | 62 | 1026.8 |
| 20260906092913 | 67 | 156 | 3.0 | 5.0 | 0.00 | 0.00 | 0.00 | 63 | 1026.8 |
| 20260906092411 | 67 | 160 | 3.0 | 6.0 | 0.00 | 0.00 | 0.00 | 62 | 1026.9 |
| 20260906090911 | 67 | 160 | 4.0 | 6.0 | 0.00 | 0.00 | 0.00 | 65 | 1026.9 |
| 20260906090410 | 67 | 168 | 5.0 | 9.0 | 0.00 | 0.00 | 0.00 | 69 | 1026.9 |
| 20260906085411 | 66 | 174 | 3.0 | 9.0 | 0.00 | 0.00 | 0.00 | 68 | 1027.1 |
| 20260906084911 | 65 | 127 | 2.0 | 6.0 | 0.00 | 0.00 | 0.00 | 70 | 1027.1 |
| 20260906083910 | 64 | 165 | 2.0 | 6.0 | 0.00 | 0.00 | 0.00 | 73 | 1027.2 |
| 20260906083411 | 63 | 156 | 2.0 | 7.0 | 0.00 | 0.00 | 0.00 | 74 | 1027.2 |
| 20260906082414 | 61 | 176 | 1.0 | 5.0 | 0.00 | 0.00 | 0.00 | 82 | 1027.4 |
| 20260906081911 | 60 | 94 | 1.0 | 2.0 | 0.00 | 0.00 | 0.00 | 87 | 1027.4 |
| 20260906080911 | 58 | 32 | 0.0 | 2.0 | 0.00 | 0.00 | 0.00 | 92 | 1027.5 |
| 20260906080410 | 58 | 296 | 0.0 | 2.0 | 0.00 | 0.00 | 0.00 | 94 | 1027.5 |
| 20260906072410 | 52 | 66 | 0.0 | 0.0 | 0.00 | 0.00 | 0.00 | 99 | 1027.5 |
| 20260906071912 | 52 | 64 | 0.0 | 1.0 | 0.00 | 0.00 | 0.00 | 99 | 1027.5 |
| 20260906071411 | 52 | 62 | 0.0 | 0.0 | 0.00 | 0.00 | 0.00 | 99 | 1027.5 |
| 20260906070411 | 51 | 62 | 0.0 | 2.0 | 0.00 | 0.00 | 0.00 | 99 | 1027.4 |
| 20260906065912 | 50 | 59 | 0.0 | 0.0 | 0.00 | 0.00 | 0.00 | 99 | 1027.4 |
| 20260906065411 | 50 | 58 | 0.0 | 0.0 | 0.00 | 0.00 | 0.00 | 99 | 1027.5 |
| 20260906064911 | 50 | 58 | 0.0 | 1.0 | 0.00 | 0.00 | 0.00 | 99 | 1027.5 |
| 20260906063911 | 49 | 60 | 0.0 | 0.0 | 0.00 | 0.00 | 0.00 | 99 | 1027.6 |
| 20260906061911 | 46 | 60 | 0.0 | 0.0 | 0.00 | 0.00 | 0.00 | 99 | 1027.7 |
| 20260906061411 | 45 | 60 | 0.0 | 0.0 | 0.00 | 0.00 | 0.00 | 99 | 1027.7 |
| 20260906054910 | 44 | 170 | 0.0 | 3.0 | 0.00 | 0.00 | 0.00 | 97 | 1027.5 |
| 20260906054411 | 44 | 283 | 0.0 | 0.0 | 0.00 | 0.00 | 0.00 | 97 | 1027.5 |
| 20260906053911 | 44 | 283 | 0.0 | 0.0 | 0.00 | 0.00 | 0.00 | 97 | 1027.7 |
| 20260906053411 | 44 | 283 | 0.0 | 0.0 | 0.00 | 0.00 | 0.00 | 97 | 1027.7 |
| 20260906052410 | 44 | 283 | 0.0 | 0.0 | 0.00 | 0.00 | 0.00 | 97 | 1027.6 |
| 20260906051411 | 44 | 294 | 0.0 | 0.0 | 0.00 | 0.00 | 0.00 | 97 | 1027.6 |
| 20260906050410 | 43 | 294 | 0.0 | 2.0 | 0.00 | 0.00 | 0.00 | 97 | 1027.4 |
| 20260906045411 | 43 | 177 | 0.0 | 0.0 | 0.00 | 0.00 | 0.00 | 97 | 1027.8 |
| 20260906044411 | 44 | 159 | 0.0 | 0.0 | 0.00 | 0.00 | 0.00 | 97 | 1027.8 |
| 20260906043410 | 44 | 159 | 0.0 | 0.0 | 0.00 | 0.00 | 0.00 | 97 | 1027.9 |
| 20260906042410 | 44 | 191 | 0.0 | 0.0 | 0.00 | 0.00 | 0.00 | 97 | 1027.9 |
| 20260906041911 | 44 | 191 | 0.0 | 5.0 | 0.00 | 0.00 | 0.00 | 96 | 1027.9 |
| 20260906041411 | 44 | 297 | 0.0 | 2.0 | 0.00 | 0.00 | 0.00 | 97 | 1027.9 |
| 20260906040910 | 44 | 298 | 0.0 | 0.0 | 0.00 | 0.00 | 0.00 | 97 | 1028.1 |
| 20260906040410 | 44 | 298 | 0.0 | 0.0 | 0.00 | 0.00 | 0.00 | 97 | 1028.1 |
| 20260906034910 | 44 | 298 | 0.0 | 0.0 | 0.00 | 0.00 | 0.00 | 96 | 1028.2 |
| 20260906034411 | 44 | 296 | 0.0 | 2.0 | 0.00 | 0.00 | 0.00 | 97 | 1028.2 |
| 20260906033910 | 45 | 208 | 0.0 | 0.0 | 0.00 | 0.00 | 0.00 | 97 | 1027.9 |
| 20260906031410 | 45 | 189 | 0.0 | 0.0 | 0.00 | 0.00 | 0.00 | 96 | 1028.1 |
| 20260906030911 | 45 | 188 | 0.0 | 0.0 | 0.00 | 0.00 | 0.00 | 96 | 1028.2 |
| 20260906025912 | 45 | 184 | 0.0 | 0.0 | 0.00 | 0.00 | 0.00 | 96 | 1028.2 |
| 20260906024911 | 45 | 184 | 0.0 | 2.0 | 0.00 | 0.00 | 0.00 | 96 | 1028.4 |
| 20260906024411 | 45 | 184 | 0.0 | 0.0 | 0.00 | 0.00 | 0.00 | 96 | 1028.4 |
| 20260906023911 | 45 | 185 | 0.0 | 0.0 | 0.00 | 0.00 | 0.00 | 96 | 1028.4 |
| 20260906023410 | 45 | 185 | 0.0 | 0.0 | 0.00 | 0.00 | 0.00 | 96 | 1028.4 |
| 20260906022911 | 46 | 185 | 0.0 | 0.0 | 0.00 | 0.00 | 0.00 | 96 | 1028.4 |
| 20260906021910 | 46 | 183 | 0.0 | 0.0 | 0.00 | 0.00 | 0.00 | 96 | 1028.4 |
| 20260906021411 | 46 | 183 | 0.0 | 0.0 | 0.00 | 0.00 | 0.00 | 96 | 1028.4 |
| 20260906020911 | 46 | 183 | 0.0 | 1.0 | 0.00 | 0.00 | 0.00 | 96 | 1028.4 |
| 20260906020410 | 46 | 183 | 0.0 | 2.0 | 0.00 | 0.00 | 0.00 | 96 | 1028.4 |
| 20260906014910 | 47 | 125 | 0.0 | 2.0 | 0.00 | 0.00 | 0.00 | 96 | 1028.3 |
| 20260906014411 | 47 | 122 | 0.0 | 0.0 | 0.00 | 0.00 | 0.00 | 96 | 1028.3 |
| 20260906013410 | 47 | 122 | 0.0 | 0.0 | 0.00 | 0.00 | 0.00 | 95 | 1028.1 |
| 20260906012911 | 47 | 122 | 0.0 | 2.0 | 0.00 | 0.00 | 0.00 | 95 | 1028.1 |
| 20260906012410 | 47 | 122 | 0.0 | 1.0 | 0.00 | 0.00 | 0.00 | 95 | 1028.1 |
| 20260906010411 | 47 | 121 | 0.0 | 2.0 | 0.00 | 0.00 | 0.00 | 95 | 1028.1 |
| 20260906005411 | 48 | 337 | 0.0 | 0.0 | 0.00 | 0.00 | 0.00 | 95 | 1028.1 |
| 20260906004411 | 48 | 338 | 0.0 | 0.0 | 0.00 | 0.00 | 0.00 | 95 | 1028.1 |
| 20260906003910 | 48 | 337 | 0.0 | 0.0 | 0.00 | 0.00 | 0.00 | 95 | 1028.1 |
| 20260906003411 | 48 | 337 | 0.0 | 2.0 | 0.00 | 0.00 | 0.00 | 95 | 1028.1 |
| 20260906002912 | 48 | 339 | 0.0 | 2.0 | 0.00 | 0.00 | 0.00 | 96 | 1028.1 |
| 20260906002410 | 48 | 348 | 0.0 | 2.0 | 0.00 | 0.00 | 0.00 | 95 | 1028.1 |
| 20260906001410 | 49 | 73 | 0.0 | 0.0 | 0.00 | 0.00 | 0.00 | 95 | 1028.1 |
| 20260905234911 | 49 | 73 | 0.0 | 0.0 | 0.00 | 0.00 | 0.00 | 95 | 1028.2 |
| 20260905232911 | 50 | 71 | 0.0 | 2.0 | 0.00 | 0.00 | 0.00 | 95 | 1028.1 |
| 20260905232410 | 50 | 72 | 0.0 | 0.0 | 0.00 | 0.00 | 0.00 | 94 | 1028.0 |
| 20260905230910 | 51 | 68 | 0.0 | 2.0 | 0.00 | 0.00 | 0.00 | 95 | 1028.1 |
| 20260905230411 | 51 | 69 | 0.0 | 3.0 | 0.00 | 0.00 | 0.00 | 94 | 1028.1 |
| 20260905225410 | 51 | 78 | 0.0 | 2.0 | 0.00 | 0.00 | 0.00 | 94 | 1028.0 |
| 20260905224910 | 51 | 78 | 1.0 | 0.0 | 0.00 | 0.00 | 0.00 | 94 | 1028.0 |
| 20260905224410 | 51 | 78 | 1.0 | 2.0 | 0.00 | 0.00 | 0.00 | 94 | 1028.0 |
| 20260905222913 | 52 | 79 | 0.0 | 3.0 | 0.00 | 0.00 | 0.00 | 95 | 1027.9 |
| 20260905222410 | 52 | 91 | 0.0 | 1.0 | 0.00 | 0.00 | 0.00 | 94 | 1027.8 |
| 20260905221412 | 52 | 91 | 0.0 | 1.0 | 0.00 | 0.00 | 0.00 | 94 | 1027.8 |
| 20260905215410 | 52 | 91 | 0.0 | 0.0 | 0.00 | 0.00 | 0.00 | 94 | 1027.9 |
| 20260905214910 | 51 | 91 | 0.0 | 2.0 | 0.00 | 0.00 | 0.00 | 94 | 1027.9 |
| 20260905214411 | 51 | 91 | 0.0 | 2.0 | 0.00 | 0.00 | 0.00 | 93 | 1027.9 |
| 20260905213411 | 52 | 48 | 0.0 | 0.0 | 0.00 | 0.00 | 0.00 | 93 | 1027.9 |
| 20260905211411 | 52 | 162 | 0.0 | 0.0 | 0.00 | 0.00 | 0.00 | 92 | 1027.7 |
| 20260905210910 | 52 | 162 | 0.0 | 0.0 | 0.00 | 0.00 | 0.00 | 92 | 1027.7 |
| 20260905205912 | 52 | 164 | 0.0 | 0.0 | 0.00 | 0.00 | 0.00 | 92 | 1027.7 |
| 20260905205410 | 52 | 180 | 0.0 | 0.0 | 0.00 | 0.00 | 0.00 | 91 | 1027.6 |
| 20260905204910 | 53 | 180 | 0.0 | 0.0 | 0.00 | 0.00 | 0.00 | 91 | 1027.6 |
| 20260905204411 | 53 | 180 | 0.0 | 0.0 | 0.00 | 0.00 | 0.00 | 91 | 1027.6 |
| 20260905202410 | 53 | 180 | 0.0 | 0.0 | 0.00 | 0.00 | 0.00 | 90 | 1027.3 |
| 20260905200410 | 54 | 180 | 0.0 | 0.0 | 0.00 | 0.00 | 0.00 | 88 | 1027.1 |
| 20260905194911 | 55 | 180 | 0.0 | 0.0 | 0.00 | 0.00 | 0.00 | 87 | 1027.1 |
| 20260905194410 | 55 | 180 | 0.0 | 0.0 | 0.00 | 0.00 | 0.00 | 86 | 1027.1 |
| 20260905193910 | 55 | 180 | 0.0 | 0.0 | 0.00 | 0.00 | 0.00 | 86 | 1027.0 |
| 20260905193410 | 56 | 180 | 0.0 | 0.0 | 0.00 | 0.00 | 0.00 | 85 | 1027.0 |